Dewpoint
53 55 57 60 63 65 66 66 67 69 69 69 70 70 71 71 70 70 70 70 69 70 70 70 70 69 68 66 66 66 65 65
51 53 55 57 59 63 64 64 64 65 66 68 68 68 70 70 70 70 70 70 69 69 70 70 69 68 68 68 68 67 67 66
49 51 53 55 57 59 61 62 61 61 62 65 67 68 67 68 69 69 69 69 70 69 69 69 69 68 68 69 68 69 68 68
47 49 51 53 55 56 57 58 59 59 59 61 63 63 66 68 67 67 66 67 68 68 68 68 68 68 69 69 68 69 68 68
46 48 50 51 53 53 54 55 56 57 56 57 58 59 60 63 64 63 62 62 62 63 64 65 66 67 68 68 68 68 68 68
45 48 49 49 50 51 51 52 52 52 53 53 55 57 58 58 57 56 57 58 60 60 61 62 62 63 64 64 65 67 68 68
43 46 48 49 48 49 49 49 49 48 47 48 51 52 53 54 53 53 53 53 53 53 54 55 56 57 59 60 62 63 65 68
43 45 47 48 48 47 47 47 47 46 45 46 46 47 48 49 47 48 49 52 52 52 51 51 52 52 54 54 55 57 61 64
42 43 45 46 45 45 45 46 46 45 44 43 43 44 45 44 44 44 46 47 47 48 47 47 48 49 49 49 50 52 54 57
41 42 44 45 44 43 44 44 44 43 42 41 41 41 42 42 42 42 44 44 44 44 44 44 45 47 45 45 46 48 49 53
40 41 42 43 43 43 43 43 42 43 40 38 38 39 39 40 40 40 42 41 41 41 41 42 43 43 42 43 45 47 49 52
39 39 40 42 43 42 41 40 40 39 38 38 36 37 37 38 39 39 40 40 39 39 39 40 42 41 42 43 44 45 48 51
38 38 39 41 41 40 38 37 37 37 37 37 36 36 36 36 37 37 38 38 38 38 38 38 40 40 41 41 42 48 47 48
37 37 37 38 39 39 38 36 36 35 36 36 35 35 36 36 36 36 37 37 37 37 37 38 38 40 39 40 40 39 43 45
36 36 36 37 38 38 37 36 35 34 34 34 35 34 35 36 36 36 36 37 36 37 38 38 37 38 39 41 38 37 39 42
35 35 34 35 36 36 35 34 32 33 33 33 34 34 34 35 35 36 36 36 36 36 37 37 37 37 38 39 39 40 40 38
34 34 33 34 34 33 32 32 32 33 33 33 32 33 34 34 34 34 35 36 35 35 35 35 36 36 35 36 37 37 39 39
33 33 33 33 33 32 32 32 32 31 31 31 31 31 31 31 32 33 34 35 35 35 34 33 33 32 32 33 34 35 35 35
33 32 32 32 32 32 31 32 32 31 31 31 31 29 29 29 31 32 33 35 35 35 34 31 31 30 30 32 33 33 33 33
33 32 32 32 32 32 32 32 32 31 31 31 31 29 27 28 29 30 32 34 33 32 33 28 29 28 27 28 30 31 34 33
Wind_Speed
14 14 15 17 19 18 16 14 14 13 10 8 7 5 3 4 5 7 6 7 8 8 9 10 10 11 10 10 9 9 7 7
14 14 13 13 12 16 16 16 15 13 12 11 9 7 6 6 5 5 6 7 7 9 10 11 12 12 11 13 14 12 11 10
13 14 14 12 12 11 11 13 15 16 14 14 9 6 6 5 4 5 5 6 7 7 8 10 11 11 11 14 16 11 10 12
12 14 14 12 11 12 12 11 12 15 14 13 12 11 11 10 12 14 15 12 10 6 4 5 6 7 8 11 9 13 12 12
11 12 13 14 13 11 11 11 11 11 15 14 12 11 11 12 10 12 11 13 12 9 10 9 7 5 6 7 8 12 11 12
10 12 14 14 12 13 12 12 12 12 13 15 12 11 11 11 12 12 12 12 11 12 10 8 7 7 6 7 8 8 10 10
10 12 13 13 16 13 13 13 14 13 14 16 13 12 11 10 11 11 12 11 13 12 12 12 10 10 8 6 7 8 9 9
11 13 12 13 15 15 14 13 12 14 15 15 16 13 12 11 11 12 13 13 11 10 10 10 10 10 10 11 11 10 9 9
13 12 11 14 14 14 14 13 14 14 14 16 17 16 14 13 12 13 12 11 12 11 12 11 12 12 12 14 15 15 15 13
9 10 14 13 15 14 13 14 13 13 13 14 16 16 15 13 13 14 13 12 11 12 14 13 12 11 14 15 15 15 16 15
13 11 14 15 15 14 15 15 14 12 13 14 15 14 15 12 12 12 11 11 13 13 12 12 12 15 15 16 15 15 13 11
12 11 13 15 15 13 13 14 13 13 12 13 13 13 14 12 12 13 11 11 13 13 12 12 8 16 17 16 15 13 11 9
10 12 10 14 12 10 11 9 10 12 12 13 14 14 13 14 12 13 13 13 13 14 11 14 8 18 10 15 11 7 8 12
9 10 10 8 8 9 7 8 11 10 10 11 13 14 15 14 14 13 13 11 13 13 14 11 6 13 8 7 8 7 10 11
11 10 10 9 12 15 14 10 6 5 9 9 12 12 12 12 11 11 12 11 12 12 14 14 12 11 14 6 6 5 15 6
13 12 12 9 9 12 8 5 5 4 6 7 10 12 12 11 11 12 12 11 12 11 11 11 10 11 8 12 8 8 5 9
12 12 12 10 13 14 16 16 13 8 7 9 10 10 10 10 12 13 13 11 10 11 11 11 9 8 8 6 7 11 8 6
15 14 12 11 13 13 16 17 14 12 9 10 9 8 9 13 14 15 13 12 12 11 11 12 11 9 9 8 7 4 9 5
17 15 14 13 14 14 14 15 14 13 10 9 9 10 10 13 14 14 12 12 14 13 11 12 12 11 11 9 8 8 7 6
17 17 16 14 14 14 13 13 13 12 10 9 8 10 11 11 12 12 10 12 13 12 10 12 11 11 12 11 8 8 8 7
Wind_Direction
44 42 43 43 43 42 45 44 37 32 28 19 1 330 286 260 261 259 257 253 254 252 262 267 252 237 239 239 225 225 232 241
43 43 44 46 45 41 44 45 43 38 29 19 9 352 352 333 309 292 286 278 271 273 272 269 271 272 265 254 251 241 241 243
42 48 47 45 46 40 39 41 44 39 26 18 20 10 8 355 357 353 330 308 290 283 282 281 285 282 272 259 257 254 247 246
44 47 50 53 51 40 37 35 39 37 28 25 31 30 35 46 51 47 45 38 38 23 348 319 311 288 275 276 256 249 239 236
55 57 56 57 54 51 45 37 38 35 31 25 29 32 28 33 38 37 32 29 34 33 37 29 19 351 308 298 281 254 235 233
66 65 67 64 62 56 52 50 43 38 33 26 30 32 33 35 40 33 28 21 21 24 23 23 23 17 9 347 328 308 254 244
80 78 75 73 69 63 60 58 54 45 36 27 27 30 37 36 38 34 33 18 27 20 11 2 1 354 348 347 329 322 307 272
94 90 87 86 81 74 68 62 58 54 45 33 31 30 26 34 30 31 30 12 8 15 10 355 344 340 327 323 307 296 291 284
102 101 98 90 89 83 72 63 57 53 46 38 36 34 33 36 33 28 19 14 8 7 7 359 353 340 339 321 314 307 294 282
115 109 108 101 97 88 76 66 63 57 49 43 38 35 34 40 36 26 12 20 14 9 10 354 347 342 328 310 303 297 292 289
116 106 107 108 97 84 76 67 60 56 51 43 34 34 33 42 40 29 23 29 25 16 5 360 347 344 323 301 293 293 294 298
117 110 113 117 109 97 83 71 61 53 48 44 36 31 34 37 34 29 26 30 25 16 11 0 344 343 318 308 303 300 309 316
128 124 124 134 126 109 85 78 62 53 51 44 38 34 32 34 32 28 24 30 20 15 2 3 358 354 343 337 323 335 19 33
121 116 119 136 126 117 117 111 83 79 65 52 41 37 33 36 33 28 25 26 23 18 19 6 357 358 349 322 339 332 357 12
132 120 111 118 123 114 108 104 89 63 50 53 42 41 37 34 33 32 30 30 23 16 17 16 3 3 353 13 339 327 340 339
137 122 110 104 128 135 142 132 117 83 77 66 52 44 38 32 35 36 35 32 31 27 24 22 15 3 346 1 352 316 325 314
132 117 108 107 107 112 112 105 110 110 91 75 58 47 41 38 40 37 35 31 31 34 32 29 31 26 10 344 334 327 296 314
139 127 115 107 109 112 117 121 122 111 97 81 63 49 38 36 39 36 30 22 27 29 37 40 30 36 25 17 11 349 349 331
139 134 127 123 116 114 116 119 117 112 107 95 71 51 40 36 40 38 32 22 34 30 36 35 32 34 28 16 18 9 345 319
150 145 136 132 128 127 123 122 117 112 109 99 87 70 54 44 46 42 39 36 49 44 38 35 31 31 33 24 20 13 348 1